When you browse on this site, cookies collect data to enhance your experience and personalize the content and advertising you see.
Visit our Privacy Policy to learn more. By continuing to use the site, you agree to this use of cookies and data.
EN

Hourly Weather Postoyata

Today, 8 August, Saturday

Time Temperature Precipitation Wind Pressure Humidity
00:00 +23°C° 0 mm 1 mps 721 mmHg 76%
01:00 +22°C° 0 mm 1 mps 721 mmHg 75%
02:00 +22°C° 0 mm 1 mps 721 mmHg 79%
03:00 +21°C° 0 mm 1 mps 721 mmHg 85%
04:00 +21°C° 0 mm 1 mps 721 mmHg 89%
05:00 +20°C° 0 mm 1 mps 721 mmHg 92%
06:00 +20°C° 0 mm 1 mps 721 mmHg 95%
07:00 +18°C° 0 mm 0 mps 721 mmHg 97%
08:00 +19°C° 0 mm 0 mps 721 mmHg 100%
09:00 +22°C° 0 mm 1 mps 721 mmHg 100%
10:00 +22°C° 0 mm 1 mps 722 mmHg 100%
11:00 +21°C° 0 mm 2 mps 721 mmHg 100%
12:00 +21°C° 0 mm 2 mps 721 mmHg 100%
13:00 +23°C° 0 mm 1 mps 721 mmHg 100%
14:00 +24°C° 0 mm 2 mps 721 mmHg 100%
15:00 +25°C° 0 mm 2 mps 720 mmHg 95%
16:00 +25°C° 0 mm 3 mps 720 mmHg 95%
17:00 +21°C° 8.5 mm 4 mps 720 mmHg 98%
18:00 +23°C° 1 mm 2 mps 719 mmHg 97%
19:00 +23°C° 0 mm 1 mps 719 mmHg 99%
20:00 +22°C° 0 mm 1 mps 719 mmHg 100%
21:00 +22°C° 0 mm 1 mps 720 mmHg 100%
22:00 +19°C° 0 mm 0 mps 720 mmHg 100%
23:00 +21°C° 0 mm 1 mps 720 mmHg 100%

Tomorrow, 9 August, Sunday

Time Temperature Precipitation Wind Pressure Humidity
00:00 +20°C° 0 mm 1 mps 720 mmHg 100%
01:00 +20°C° 0 mm 1 mps 719 mmHg 100%
02:00 +20°C° 0 mm 1 mps 719 mmHg 100%
03:00 +20°C° 0 mm 1 mps 719 mmHg 100%
04:00 +19°C° 0 mm 1 mps 719 mmHg 100%
05:00 +19°C° 0 mm 1 mps 719 mmHg 100%
06:00 +19°C° 0 mm 1 mps 718 mmHg 100%
07:00 +19°C° 0 mm 1 mps 719 mmHg 100%
08:00 +18°C° 0 mm 0 mps 719 mmHg 100%
09:00 +21°C° 0 mm 1 mps 719 mmHg 99%
10:00 +22°C° 0 mm 1 mps 720 mmHg 99%
11:00 +21°C° 0 mm 2 mps 720 mmHg 96%
12:00 +23°C° 0 mm 2 mps 720 mmHg 93%
13:00 +23°C° 0 mm 2 mps 719 mmHg 92%
14:00 +23°C° 0 mm 2 mps 719 mmHg 94%
15:00 +24°C° 0 mm 2 mps 719 mmHg 90%
16:00 +24°C° 0 mm 2 mps 718 mmHg 91%
17:00 +24°C° 0 mm 2 mps 718 mmHg 93%
18:00 +23°C° 0 mm 2 mps 718 mmHg 94%
19:00 +23°C° 0 mm 2 mps 718 mmHg 98%
20:00 +22°C° 0 mm 1 mps 718 mmHg 100%
21:00 +21°C° 0.5 mm 1 mps 718 mmHg 100%
22:00 +21°C° 1.1 mm 1 mps 718 mmHg 100%
23:00 +19°C° 0 mm 0 mps 718 mmHg 100%

Day after tomorrow, 10 August, Monday

Time Temperature Precipitation Wind Pressure Humidity
00:00 +18°C° 0 mm 0 mps 718 mmHg 100%
01:00 +18°C° 0 mm 0 mps 717 mmHg 100%
02:00 +18°C° 0 mm 0 mps 717 mmHg 100%
03:00 +18°C° 0 mm 0 mps 717 mmHg 100%
04:00 +17°C° 0 mm 0 mps 717 mmHg 100%
05:00 +19°C° 0 mm 1 mps 717 mmHg 100%
06:00 +19°C° 0 mm 1 mps 717 mmHg 100%
07:00 +19°C° 0 mm 1 mps 717 mmHg 100%
08:00 +20°C° 0 mm 1 mps 717 mmHg 100%
09:00 +20°C° 0 mm 1 mps 717 mmHg 100%
10:00 +21°C° 0 mm 1 mps 718 mmHg 100%
11:00 +22°C° 0 mm 1 mps 718 mmHg 97%
12:00 +22°C° 0 mm 1 mps 718 mmHg 96%
13:00 +23°C° 0 mm 2 mps 718 mmHg 97%
14:00 +23°C° 0 mm 2 mps 717 mmHg 95%
15:00 +22°C° 0 mm 3 mps 717 mmHg 95%
16:00 +23°C° 0 mm 2 mps 717 mmHg 94%
17:00 +23°C° 0 mm 2 mps 717 mmHg 95%
18:00 +23°C° 0 mm 2 mps 717 mmHg 99%
19:00 +21°C° 0 mm 2 mps 717 mmHg 100%
20:00 +21°C° 0 mm 1 mps 717 mmHg 100%
21:00 +20°C° 0 mm 2 mps 717 mmHg 100%
22:00 +21°C° 0 mm 1 mps 717 mmHg 100%
23:00 +20°C° 0 mm 1 mps 718 mmHg 100%

11 August, Tuesday

Time Temperature Precipitation Wind Pressure Humidity
00:00 +20°C° 0 mm 1 mps 718 mmHg 100%
01:00 +18°C° 0 mm 0 mps 717 mmHg 100%
02:00 +17°C° 0 mm 0 mps 717 mmHg 100%
03:00 +19°C° 0 mm 1 mps 717 mmHg 100%
04:00 +18°C° 0 mm 1 mps 717 mmHg 100%
05:00 +18°C° 0 mm 1 mps 717 mmHg 100%
06:00 +16°C° 0 mm 0 mps 717 mmHg 100%
07:00 +19°C° 0 mm 1 mps 717 mmHg 100%
08:00 +19°C° 0 mm 1 mps 717 mmHg 100%
09:00 +17°C° 0 mm 0 mps 718 mmHg 100%
10:00 +20°C° 0 mm 1 mps 718 mmHg 100%
11:00 +21°C° 0 mm 1 mps 718 mmHg 100%
12:00 +21°C° 0 mm 2 mps 719 mmHg 96%
13:00 +21°C° 0 mm 3 mps 718 mmHg 99%
14:00 +21°C° 0 mm 3 mps 718 mmHg 100%
15:00 +21°C° 0 mm 2 mps 718 mmHg 98%
16:00 +21°C° 0 mm 2 mps 718 mmHg 95%
17:00 +21°C° 0 mm 2 mps 718 mmHg 94%
18:00 +21°C° 0 mm 2 mps 718 mmHg 96%
19:00 +21°C° 0 mm 1 mps 718 mmHg 97%
20:00 +18°C° 0 mm 0 mps 718 mmHg 100%
21:00 +18°C° 0 mm 0 mps 718 mmHg 100%
22:00 +19°C° 0 mm 1 mps 718 mmHg 100%
23:00 +19°C° 0 mm 1 mps 718 mmHg 97%

12 August, Wednesday

Time Temperature Precipitation Wind Pressure Humidity
00:00 +19°C° 0 mm 1 mps 718 mmHg 97%
01:00 +19°C° 0 mm 1 mps 718 mmHg 99%
02:00 +17°C° 0 mm 2 mps 718 mmHg 100%
03:00 +18°C° 0 mm 1 mps 717 mmHg 100%
04:00 +18°C° 0 mm 1 mps 717 mmHg 100%
05:00 +18°C° 0 mm 1 mps 717 mmHg 99%
06:00 +18°C° 0 mm 1 mps 717 mmHg 100%
07:00 +18°C° 0 mm 1 mps 718 mmHg 100%
08:00 +17°C° 0 mm 2 mps 718 mmHg 100%
09:00 +18°C° 0 mm 1 mps 718 mmHg 100%
10:00 +18°C° 0 mm 2 mps 718 mmHg 100%
11:00 +19°C° 0 mm 2 mps 718 mmHg 99%
12:00 +19°C° 0 mm 2 mps 719 mmHg 98%
13:00 +19°C° 0 mm 3 mps 718 mmHg 97%
14:00 +19°C° 0 mm 3 mps 718 mmHg 95%
15:00 +19°C° 0 mm 3 mps 718 mmHg 96%
16:00 +19°C° 0 mm 3 mps 718 mmHg 100%
17:00 +18°C° 0 mm 3 mps 718 mmHg 98%
18:00 +18°C° 0 mm 2 mps 718 mmHg 95%
19:00 +17°C° 0 mm 2 mps 718 mmHg 99%
20:00 +18°C° 0 mm 1 mps 718 mmHg 100%
21:00 +15°C° 0 mm 0 mps 719 mmHg 100%
22:00 +16°C° 0 mm 1 mps 718 mmHg 100%
23:00 +15°C° 0 mm 1 mps 719 mmHg 100%

13 August, Thursday

Time Temperature Precipitation Wind Pressure Humidity
00:00 +15°C° 0 mm 1 mps 719 mmHg 100%
01:00 +15°C° 0 mm 1 mps 718 mmHg 100%
02:00 +15°C° 0 mm 2 mps 718 mmHg 100%
03:00 +15°C° 0 mm 1 mps 718 mmHg 99%
04:00 +14°C° 0 mm 2 mps 718 mmHg 99%
05:00 +14°C° 0 mm 1 mps 718 mmHg 98%
06:00 +15°C° 0 mm 1 mps 718 mmHg 99%
07:00 +14°C° 0 mm 0 mps 719 mmHg 100%
08:00 +15°C° 0 mm 1 mps 719 mmHg 100%
09:00 +16°C° 0 mm 1 mps 719 mmHg 100%
10:00 +16°C° 0 mm 2 mps 719 mmHg 100%
11:00 +17°C° 0 mm 2 mps 719 mmHg 99%
12:00 +18°C° 0 mm 2 mps 720 mmHg 93%
13:00 +18°C° 0 mm 2 mps 720 mmHg 91%
14:00 +19°C° 0 mm 2 mps 719 mmHg 92%
15:00 +19°C° 0 mm 2 mps 719 mmHg 92%
16:00 +19°C° 0 mm 2 mps 719 mmHg 90%
17:00 +19°C° 0 mm 2 mps 719 mmHg 90%
18:00 +18°C° 0 mm 2 mps 719 mmHg 95%
19:00 +17°C° 0 mm 2 mps 719 mmHg 99%
20:00 +17°C° 0 mm 2 mps 719 mmHg 100%
21:00 +16°C° 0 mm 1 mps 719 mmHg 100%
22:00 +16°C° 0 mm 1 mps 719 mmHg 100%
23:00 +16°C° 0 mm 1 mps 719 mmHg 100%
Show more